Year,Month,Day,Hour,Minute,Value (Times are PST for temperature in C)
2016,05,07,00,00,12.60
2016,05,07,00,01,12.50
2016,05,07,00,02,12.50
2016,05,07,00,03,12.40
2016,05,07,00,04,12.40
2016,05,07,00,05,12.40
2016,05,07,00,06,12.30
2016,05,07,00,07,12.30
2016,05,07,00,08,12.30
2016,05,07,00,09,12.30
2016,05,07,00,10,12.20
2016,05,07,00,11,12.20
2016,05,07,00,12,12.20
2016,05,07,00,13,12.20
2016,05,07,00,14,12.20
2016,05,07,00,15,12.20
2016,05,07,00,16,12.20
2016,05,07,00,17,12.20
2016,05,07,00,18,12.10
2016,05,07,00,19,12.10
2016,05,07,00,20,12.10
2016,05,07,00,21,12.10
2016,05,07,00,22,12.10
2016,05,07,00,23,12.10
2016,05,07,00,24,12.10
2016,05,07,00,25,12.10
2016,05,07,00,26,12.10
2016,05,07,00,27,12.10
2016,05,07,00,28,12.10
2016,05,07,00,29,12.10
2016,05,07,00,30,12.10
2016,05,07,00,31,12.10
2016,05,07,00,32,12.10
2016,05,07,00,33,12.10
2016,05,07,00,34,12.10
2016,05,07,00,35,12.10
2016,05,07,00,36,12.00
2016,05,07,00,37,12.00
2016,05,07,00,38,11.90
2016,05,07,00,39,11.90
2016,05,07,00,40,11.90
2016,05,07,00,41,11.80
2016,05,07,00,42,11.80
2016,05,07,00,43,11.80
2016,05,07,00,44,11.70
2016,05,07,00,45,11.70
2016,05,07,00,46,11.70
2016,05,07,00,47,11.70
2016,05,07,00,48,11.70
2016,05,07,00,49,11.80
2016,05,07,00,50,11.80
2016,05,07,00,51,11.80
2016,05,07,00,52,11.70
2016,05,07,00,53,11.70
2016,05,07,00,54,11.70
2016,05,07,00,55,11.70
2016,05,07,00,56,11.70
2016,05,07,00,57,11.70
2016,05,07,00,58,11.70
2016,05,07,00,59,11.60
2016,05,07,01,00,11.60
2016,05,07,01,01,11.60
2016,05,07,01,02,11.50
2016,05,07,01,03,11.50
2016,05,07,01,04,11.40
2016,05,07,01,05,11.40
2016,05,07,01,06,11.40
2016,05,07,01,07,11.40
2016,05,07,01,08,11.40
2016,05,07,01,09,11.40
2016,05,07,01,10,11.30
2016,05,07,01,11,11.30
2016,05,07,01,12,11.30
2016,05,07,01,13,11.30
2016,05,07,01,14,11.30
2016,05,07,01,15,11.20
2016,05,07,01,16,11.20
2016,05,07,01,17,11.20
2016,05,07,01,18,11.10
2016,05,07,01,19,11.10
2016,05,07,01,20,11.10
2016,05,07,01,21,11.10
2016,05,07,01,22,11.10
2016,05,07,01,23,11.10
2016,05,07,01,24,11.00
2016,05,07,01,25,11.00
2016,05,07,01,26,11.00
2016,05,07,01,27,11.00
2016,05,07,01,28,11.10
2016,05,07,01,29,11.10
2016,05,07,01,30,11.10
2016,05,07,01,31,11.10
2016,05,07,01,32,11.10
2016,05,07,01,33,11.20
2016,05,07,01,34,11.20
2016,05,07,01,35,11.20
2016,05,07,01,36,11.20
2016,05,07,01,37,11.20
2016,05,07,01,38,11.20
2016,05,07,01,39,11.20
2016,05,07,01,40,11.20
2016,05,07,01,41,11.20
2016,05,07,01,42,11.10
2016,05,07,01,43,11.10
2016,05,07,01,44,11.10
2016,05,07,01,45,11.00
2016,05,07,01,46,11.00
2016,05,07,01,47,10.90
2016,05,07,01,48,10.90
2016,05,07,01,49,10.90
2016,05,07,01,50,10.90
2016,05,07,01,51,10.90
2016,05,07,01,52,10.80
2016,05,07,01,53,10.80
2016,05,07,01,54,10.80
2016,05,07,01,55,10.80
2016,05,07,01,56,10.80
2016,05,07,01,57,10.80
2016,05,07,01,58,10.70
2016,05,07,01,59,10.70
2016,05,07,02,00,10.70
2016,05,07,02,01,10.60
2016,05,07,02,02,10.60
2016,05,07,02,03,10.60
2016,05,07,02,04,10.50
2016,05,07,02,05,10.50
2016,05,07,02,06,10.50
2016,05,07,02,07,10.40
2016,05,07,02,08,10.40
2016,05,07,02,09,10.40
2016,05,07,02,10,10.40
2016,05,07,02,11,10.30
2016,05,07,02,12,10.30
2016,05,07,02,13,10.30
2016,05,07,02,14,10.30
2016,05,07,02,15,10.30
2016,05,07,02,16,10.30
2016,05,07,02,17,10.20
2016,05,07,02,18,10.20
2016,05,07,02,19,10.20
2016,05,07,02,20,10.20
2016,05,07,02,21,10.20
2016,05,07,02,22,10.20
2016,05,07,02,23,10.20
2016,05,07,02,24,10.20
2016,05,07,02,25,10.20
2016,05,07,02,26,10.20
2016,05,07,02,27,10.20
2016,05,07,02,28,10.20
2016,05,07,02,29,10.20
2016,05,07,02,30,10.10
2016,05,07,02,31,10.10
2016,05,07,02,32,10.10
2016,05,07,02,33,10.10
2016,05,07,02,34,10.10
2016,05,07,02,35,10.10
2016,05,07,02,36,10.10
2016,05,07,02,37,10.10
2016,05,07,02,38,10.20
2016,05,07,02,39,10.20
2016,05,07,02,40,10.20
2016,05,07,02,41,10.20
2016,05,07,02,42,10.10
2016,05,07,02,43,10.10
2016,05,07,02,44,10.10
2016,05,07,02,45,10.10
2016,05,07,02,46,10.10
2016,05,07,02,47,10.10
2016,05,07,02,48,10.10
2016,05,07,02,49,10.10
2016,05,07,02,50,10.10
2016,05,07,02,51,10.10
2016,05,07,02,52,10.10
2016,05,07,02,53,10.10
2016,05,07,02,54,10.10
2016,05,07,02,55,10.10
2016,05,07,02,56,10.10
2016,05,07,02,57,10.00
2016,05,07,02,58,10.00
2016,05,07,02,59,10.00
2016,05,07,03,00,10.00
2016,05,07,03,01,9.90
2016,05,07,03,02,9.90
2016,05,07,03,03,9.80
2016,05,07,03,04,9.80
2016,05,07,03,05,9.80
2016,05,07,03,06,9.80
2016,05,07,03,07,9.80
2016,05,07,03,08,9.80
2016,05,07,03,09,9.80
2016,05,07,03,10,9.70
2016,05,07,03,11,9.70
2016,05,07,03,12,9.70
2016,05,07,03,13,9.70
2016,05,07,03,14,9.60
2016,05,07,03,15,9.60
2016,05,07,03,16,9.60
2016,05,07,03,17,9.60
2016,05,07,03,18,9.60
2016,05,07,03,19,9.60
2016,05,07,03,20,9.50
2016,05,07,03,21,9.50
2016,05,07,03,22,9.50
2016,05,07,03,23,9.40
2016,05,07,03,24,9.40
2016,05,07,03,25,9.40
2016,05,07,03,26,9.30
2016,05,07,03,27,9.30
2016,05,07,03,28,9.20
2016,05,07,03,29,9.20
2016,05,07,03,30,9.20
2016,05,07,03,31,9.20
2016,05,07,03,32,9.10
2016,05,07,03,33,9.10
2016,05,07,03,34,9.10
2016,05,07,03,35,9.00
2016,05,07,03,36,9.00
2016,05,07,03,37,9.00
2016,05,07,03,38,9.00
2016,05,07,03,39,8.90
2016,05,07,03,40,8.90
2016,05,07,03,41,8.90
2016,05,07,03,42,8.90
2016,05,07,03,43,8.90
2016,05,07,03,44,8.80
2016,05,07,03,45,8.80
2016,05,07,03,46,8.80
2016,05,07,03,47,8.80
2016,05,07,03,48,8.80
2016,05,07,03,49,8.90
2016,05,07,03,50,8.90
2016,05,07,03,51,8.90
2016,05,07,03,52,8.90
2016,05,07,03,53,8.90
2016,05,07,03,54,8.90
2016,05,07,03,55,9.00
2016,05,07,03,56,9.00
2016,05,07,03,57,9.00
2016,05,07,03,58,9.10
2016,05,07,03,59,9.10
2016,05,07,04,00,9.10
2016,05,07,04,01,9.20
2016,05,07,04,02,9.20
2016,05,07,04,03,9.20
2016,05,07,04,04,9.20
2016,05,07,04,05,9.20
2016,05,07,04,06,9.20
2016,05,07,04,07,9.20
2016,05,07,04,08,9.20
2016,05,07,04,09,9.20
2016,05,07,04,10,9.20
2016,05,07,04,11,9.20
2016,05,07,04,12,9.20
2016,05,07,04,13,9.20
2016,05,07,04,14,9.10
2016,05,07,04,15,9.10
2016,05,07,04,16,9.00
2016,05,07,04,17,9.00
2016,05,07,04,18,9.00
2016,05,07,04,19,9.10
2016,05,07,04,20,9.10
2016,05,07,04,21,9.10
2016,05,07,04,22,9.10
2016,05,07,04,23,9.00
2016,05,07,04,24,9.00
2016,05,07,04,25,9.00
2016,05,07,04,26,9.00
2016,05,07,04,27,8.90
2016,05,07,04,28,8.90
2016,05,07,04,29,8.90
2016,05,07,04,30,8.80
2016,05,07,04,31,8.80
2016,05,07,04,32,8.80
2016,05,07,04,33,8.80
2016,05,07,04,34,8.80
2016,05,07,04,35,8.80
2016,05,07,04,36,8.80
2016,05,07,04,37,8.80
2016,05,07,04,38,8.80
2016,05,07,04,39,8.80
2016,05,07,04,40,8.70
2016,05,07,04,41,8.70
2016,05,07,04,42,8.70
2016,05,07,04,43,8.70
2016,05,07,04,44,8.60
2016,05,07,04,45,8.60
2016,05,07,04,46,8.60
2016,05,07,04,47,8.60
2016,05,07,04,48,8.50
2016,05,07,04,49,8.50
2016,05,07,04,50,8.50
2016,05,07,04,51,8.50
2016,05,07,04,52,8.50
2016,05,07,04,53,8.50
2016,05,07,04,54,8.50
2016,05,07,04,55,8.50
2016,05,07,04,56,8.50
2016,05,07,04,57,8.40
2016,05,07,04,58,8.40
2016,05,07,04,59,8.40
2016,05,07,05,00,8.40
2016,05,07,05,01,8.40
2016,05,07,05,02,8.40
2016,05,07,05,03,8.30
2016,05,07,05,04,8.30
2016,05,07,05,05,8.30
2016,05,07,05,06,8.30
2016,05,07,05,07,8.30
2016,05,07,05,08,8.30
2016,05,07,05,09,8.30
2016,05,07,05,10,8.30
2016,05,07,05,11,8.30
2016,05,07,05,12,8.30
2016,05,07,05,13,8.30
2016,05,07,05,14,8.30
2016,05,07,05,15,8.30
2016,05,07,05,16,8.30
2016,05,07,05,17,8.30
2016,05,07,05,18,8.40
2016,05,07,05,19,8.40
2016,05,07,05,20,8.40
2016,05,07,05,21,8.40
2016,05,07,05,22,8.40
2016,05,07,05,23,8.40
2016,05,07,05,24,8.30
2016,05,07,05,25,8.30
2016,05,07,05,26,8.30
2016,05,07,05,27,8.30
2016,05,07,05,28,8.30
2016,05,07,05,29,8.30
2016,05,07,05,30,8.30
2016,05,07,05,31,8.20
2016,05,07,05,32,8.20
2016,05,07,05,33,8.20
2016,05,07,05,34,8.10
2016,05,07,05,35,8.10
2016,05,07,05,36,8.10
2016,05,07,05,37,8.10
2016,05,07,05,38,8.10
2016,05,07,05,39,8.10
2016,05,07,05,40,8.10
2016,05,07,05,41,8.10
2016,05,07,05,42,8.10
2016,05,07,05,43,8.10
2016,05,07,05,44,8.10
2016,05,07,05,45,8.10
2016,05,07,05,46,8.10
2016,05,07,05,47,8.10
2016,05,07,05,48,8.10
2016,05,07,05,49,8.10
2016,05,07,05,50,8.10
2016,05,07,05,51,8.10
2016,05,07,05,52,8.10
2016,05,07,05,53,8.00
2016,05,07,05,54,8.00
2016,05,07,05,55,7.90
2016,05,07,05,56,7.90
2016,05,07,05,57,7.90
2016,05,07,05,58,7.90
2016,05,07,05,59,7.90
2016,05,07,06,00,7.90
2016,05,07,06,01,7.90
2016,05,07,06,02,8.00
2016,05,07,06,03,8.00
2016,05,07,06,04,8.10
2016,05,07,06,05,8.10
2016,05,07,06,06,8.10
2016,05,07,06,07,8.10
2016,05,07,06,08,8.10
2016,05,07,06,09,8.10
2016,05,07,06,10,8.10
2016,05,07,06,11,8.10
2016,05,07,06,12,8.10
2016,05,07,06,13,8.10
2016,05,07,06,14,8.10
2016,05,07,06,15,8.10
2016,05,07,06,16,8.10
2016,05,07,06,17,8.00
2016,05,07,06,18,8.00
2016,05,07,06,19,8.00
2016,05,07,06,20,8.00
2016,05,07,06,21,8.00
2016,05,07,06,22,8.00
2016,05,07,06,23,8.00
2016,05,07,06,24,8.00
2016,05,07,06,25,8.00
2016,05,07,06,26,8.00
2016,05,07,06,27,8.00
2016,05,07,06,28,8.00
2016,05,07,06,29,8.00
2016,05,07,06,30,8.00
2016,05,07,06,31,8.10
2016,05,07,06,32,8.10
2016,05,07,06,33,8.20
2016,05,07,06,34,8.20
2016,05,07,06,35,8.30
2016,05,07,06,36,8.30
2016,05,07,06,37,8.40
2016,05,07,06,38,8.50
2016,05,07,06,39,8.50
2016,05,07,06,40,8.60
2016,05,07,06,41,8.70
2016,05,07,06,42,8.80
2016,05,07,06,43,8.90
2016,05,07,06,44,9.00
2016,05,07,06,45,9.00
2016,05,07,06,46,9.10
2016,05,07,06,47,9.10
2016,05,07,06,48,9.20
2016,05,07,06,49,9.20
2016,05,07,06,50,9.20
2016,05,07,06,51,9.30
2016,05,07,06,52,9.30
2016,05,07,06,53,9.30
2016,05,07,06,54,9.30
2016,05,07,06,55,9.40
2016,05,07,06,56,9.40
2016,05,07,06,57,9.50
2016,05,07,06,58,9.60
2016,05,07,06,59,9.60
2016,05,07,07,00,9.70
2016,05,07,07,01,9.80
2016,05,07,07,02,9.90
2016,05,07,07,03,9.90
2016,05,07,07,04,10.00
2016,05,07,07,05,10.10
2016,05,07,07,06,10.20
2016,05,07,07,07,10.30
2016,05,07,07,08,10.40
2016,05,07,07,09,10.40
2016,05,07,07,10,10.50
2016,05,07,07,11,10.60
2016,05,07,07,12,10.70
2016,05,07,07,13,10.80
2016,05,07,07,14,10.80
2016,05,07,07,15,10.90
2016,05,07,07,16,10.90
2016,05,07,07,17,11.00
2016,05,07,07,18,11.10
2016,05,07,07,19,11.30
2016,05,07,07,20,11.30
2016,05,07,07,21,11.40
2016,05,07,07,22,11.40
2016,05,07,07,23,11.40
2016,05,07,07,24,11.50
2016,05,07,07,25,11.50
2016,05,07,07,26,11.50
2016,05,07,07,27,11.50
2016,05,07,07,28,11.60
2016,05,07,07,29,11.60
2016,05,07,07,30,11.60
2016,05,07,07,31,11.70
2016,05,07,07,32,11.70
2016,05,07,07,33,11.80
2016,05,07,07,34,11.80
2016,05,07,07,35,11.90
2016,05,07,07,36,12.00
2016,05,07,07,37,12.00
2016,05,07,07,38,12.10
2016,05,07,07,39,12.20
2016,05,07,07,40,12.30
2016,05,07,07,41,12.40
2016,05,07,07,42,12.50
2016,05,07,07,43,12.60
2016,05,07,07,44,12.70
2016,05,07,07,45,12.80
2016,05,07,07,46,12.80
2016,05,07,07,47,12.90
2016,05,07,07,48,13.00
2016,05,07,07,49,13.10
2016,05,07,07,50,13.20
2016,05,07,07,51,13.30
2016,05,07,07,52,13.40
2016,05,07,07,53,13.50
2016,05,07,07,54,13.60
2016,05,07,07,55,13.70
2016,05,07,07,56,13.80
2016,05,07,07,57,13.90
2016,05,07,07,58,14.00
2016,05,07,07,59,14.10
2016,05,07,08,00,14.10
2016,05,07,08,01,14.10
2016,05,07,08,02,14.10
2016,05,07,08,03,14.10
2016,05,07,08,04,14.10
2016,05,07,08,05,14.20
2016,05,07,08,06,14.30
2016,05,07,08,07,14.30
2016,05,07,08,08,14.40
2016,05,07,08,09,14.50
2016,05,07,08,10,14.50
2016,05,07,08,11,14.60
2016,05,07,08,12,14.70
2016,05,07,08,13,14.70
2016,05,07,08,14,14.80
2016,05,07,08,15,14.80
2016,05,07,08,16,14.90
2016,05,07,08,17,15.00
2016,05,07,08,18,15.00
2016,05,07,08,19,15.10
2016,05,07,08,20,15.20
2016,05,07,08,21,15.20
2016,05,07,08,22,15.30
2016,05,07,08,23,15.30
2016,05,07,08,24,15.40
2016,05,07,08,25,15.40
2016,05,07,08,26,15.50
2016,05,07,08,27,15.50
2016,05,07,08,28,15.60
2016,05,07,08,29,15.60
2016,05,07,08,30,15.70
2016,05,07,08,31,15.80
2016,05,07,08,32,15.80
2016,05,07,08,33,15.90
2016,05,07,08,34,15.90
2016,05,07,08,35,16.00
2016,05,07,08,36,16.10
2016,05,07,08,37,16.10
2016,05,07,08,38,16.20
2016,05,07,08,39,16.30
2016,05,07,08,40,16.40
2016,05,07,08,41,16.50
2016,05,07,08,42,16.50
2016,05,07,08,43,16.60
2016,05,07,08,44,16.60
2016,05,07,08,45,16.70
2016,05,07,08,46,16.70
2016,05,07,08,47,16.70
2016,05,07,08,48,16.80
2016,05,07,08,49,16.80
2016,05,07,08,50,16.80
2016,05,07,08,51,16.70
2016,05,07,08,52,16.70
2016,05,07,08,53,16.70
2016,05,07,08,54,16.70
2016,05,07,08,55,16.70
2016,05,07,08,56,16.70
2016,05,07,08,57,16.80
2016,05,07,08,58,16.80
2016,05,07,08,59,16.80
2016,05,07,09,00,16.90
2016,05,07,09,01,16.90
2016,05,07,09,02,17.00
2016,05,07,09,03,17.10
2016,05,07,09,04,17.10
2016,05,07,09,05,17.20
2016,05,07,09,06,17.20
2016,05,07,09,07,17.30
2016,05,07,09,08,17.30
2016,05,07,09,09,17.40
2016,05,07,09,10,17.50
2016,05,07,09,11,17.50
2016,05,07,09,12,17.60
2016,05,07,09,13,17.70
2016,05,07,09,14,17.70
2016,05,07,09,15,17.80
2016,05,07,09,16,17.80
2016,05,07,09,17,17.80
2016,05,07,09,18,17.90
2016,05,07,09,19,17.90
2016,05,07,09,20,17.90
2016,05,07,09,21,18.00
2016,05,07,09,22,18.00
2016,05,07,09,23,18.00
2016,05,07,09,24,18.10
2016,05,07,09,25,18.10
2016,05,07,09,26,18.20
2016,05,07,09,27,18.30
2016,05,07,09,28,18.40
2016,05,07,09,29,18.40
2016,05,07,09,30,18.50
2016,05,07,09,31,18.50
2016,05,07,09,32,18.60
2016,05,07,09,33,18.60
2016,05,07,09,34,18.60
2016,05,07,09,35,18.60
2016,05,07,09,36,18.70
2016,05,07,09,37,18.70
2016,05,07,09,38,18.70
2016,05,07,09,39,18.80
2016,05,07,09,40,18.90
2016,05,07,09,41,19.10
2016,05,07,09,42,19.20
2016,05,07,09,43,19.30
2016,05,07,09,44,19.30
2016,05,07,09,45,19.40
2016,05,07,09,46,19.40
2016,05,07,09,47,19.40
2016,05,07,09,48,19.40
2016,05,07,09,49,19.30
2016,05,07,09,50,19.20
2016,05,07,09,51,19.10
2016,05,07,09,52,18.90
2016,05,07,09,53,18.90
2016,05,07,09,54,18.80
2016,05,07,09,55,18.70
2016,05,07,09,56,18.70
2016,05,07,09,57,18.60
2016,05,07,09,58,18.50
2016,05,07,09,59,18.40
2016,05,07,10,00,18.30
2016,05,07,10,01,18.30
2016,05,07,10,02,18.30
2016,05,07,10,03,18.30
2016,05,07,10,04,18.30
2016,05,07,10,05,18.30
2016,05,07,10,06,18.30
2016,05,07,10,07,18.30
2016,05,07,10,08,18.30
2016,05,07,10,09,18.30
2016,05,07,10,10,18.40
2016,05,07,10,11,18.50
2016,05,07,10,12,18.60
2016,05,07,10,13,18.70
2016,05,07,10,14,18.80
2016,05,07,10,15,18.90
2016,05,07,10,16,18.80
2016,05,07,10,17,18.90
2016,05,07,10,18,18.90
2016,05,07,10,19,18.90
2016,05,07,10,20,18.90
2016,05,07,10,21,18.90
2016,05,07,10,22,19.00
2016,05,07,10,23,19.10
2016,05,07,10,24,19.20
2016,05,07,10,25,19.30
2016,05,07,10,26,19.40
2016,05,07,10,27,19.50
2016,05,07,10,28,19.70
2016,05,07,10,29,19.70
2016,05,07,10,30,19.80
2016,05,07,10,31,19.80
2016,05,07,10,32,19.80
2016,05,07,10,33,19.80
2016,05,07,10,34,19.70
2016,05,07,10,35,19.60
2016,05,07,10,36,19.60
2016,05,07,10,37,19.60
2016,05,07,10,38,19.70
2016,05,07,10,39,19.70
2016,05,07,10,40,19.80
2016,05,07,10,41,19.80
2016,05,07,10,42,19.80
2016,05,07,10,43,19.80
2016,05,07,10,44,19.80
2016,05,07,10,45,19.80
2016,05,07,10,46,19.80
2016,05,07,10,47,19.80
2016,05,07,10,48,19.80
2016,05,07,10,49,19.90
2016,05,07,10,50,19.90
2016,05,07,10,51,19.90
2016,05,07,10,52,19.80
2016,05,07,10,53,19.70
2016,05,07,10,54,19.60
2016,05,07,10,55,19.60
2016,05,07,10,56,19.60
2016,05,07,10,57,19.50
2016,05,07,10,58,19.50
2016,05,07,10,59,19.40
2016,05,07,11,00,19.40
2016,05,07,11,01,19.40
2016,05,07,11,02,19.40
2016,05,07,11,03,19.50
2016,05,07,11,04,19.60
2016,05,07,11,05,19.70
2016,05,07,11,06,19.80
2016,05,07,11,07,19.80
2016,05,07,11,08,19.80
2016,05,07,11,09,19.90
2016,05,07,11,10,19.90
2016,05,07,11,11,20.00
2016,05,07,11,12,20.00
2016,05,07,11,13,20.00
2016,05,07,11,14,19.90
2016,05,07,11,15,19.90
2016,05,07,11,16,19.80
2016,05,07,11,17,19.80
2016,05,07,11,18,19.80
2016,05,07,11,19,19.80
2016,05,07,11,20,19.90
2016,05,07,11,21,19.90
2016,05,07,11,22,19.90
2016,05,07,11,23,19.90
2016,05,07,11,24,19.90
2016,05,07,11,25,19.90
2016,05,07,11,26,19.80
2016,05,07,11,27,19.70
2016,05,07,11,28,19.60
2016,05,07,11,29,19.60
2016,05,07,11,30,19.50
2016,05,07,11,31,19.50
2016,05,07,11,32,19.60
2016,05,07,11,33,19.60
2016,05,07,11,34,19.70
2016,05,07,11,35,19.70
2016,05,07,11,36,19.60
2016,05,07,11,37,19.50
2016,05,07,11,38,19.40
2016,05,07,11,39,19.40
2016,05,07,11,40,19.30
2016,05,07,11,41,19.10
2016,05,07,11,42,18.90
2016,05,07,11,43,18.70
2016,05,07,11,44,18.60
2016,05,07,11,45,18.40
2016,05,07,11,46,18.30
2016,05,07,11,47,18.10
2016,05,07,11,48,18.00
2016,05,07,11,49,18.00
2016,05,07,11,50,18.00
2016,05,07,11,51,17.90
2016,05,07,11,52,17.80
2016,05,07,11,53,17.80
2016,05,07,11,54,17.80
2016,05,07,11,55,17.90
2016,05,07,11,56,17.90
2016,05,07,11,57,18.00
2016,05,07,11,58,18.10
2016,05,07,11,59,18.10
2016,05,07,12,00,18.20
2016,05,07,12,01,18.20
2016,05,07,12,02,18.20
2016,05,07,12,03,18.30
2016,05,07,12,04,18.30
2016,05,07,12,05,18.50
2016,05,07,12,06,18.60
2016,05,07,12,07,18.60
2016,05,07,12,08,18.70
2016,05,07,12,09,18.80
2016,05,07,12,10,18.90
2016,05,07,12,11,19.00
2016,05,07,12,12,19.10
2016,05,07,12,13,19.10
2016,05,07,12,14,19.10
2016,05,07,12,15,19.10
2016,05,07,12,16,19.10
2016,05,07,12,17,19.10
2016,05,07,12,18,19.10
2016,05,07,12,19,19.20
2016,05,07,12,20,19.30
2016,05,07,12,21,19.50
2016,05,07,12,22,19.60
2016,05,07,12,23,19.70
2016,05,07,12,24,19.70
2016,05,07,12,25,19.80
2016,05,07,12,26,19.80
2016,05,07,12,27,19.90
2016,05,07,12,28,20.00
2016,05,07,12,29,20.10
2016,05,07,12,30,20.10
2016,05,07,12,31,20.20
2016,05,07,12,32,20.30
2016,05,07,12,33,20.30
2016,05,07,12,34,20.30
2016,05,07,12,35,20.30
2016,05,07,12,36,20.20
2016,05,07,12,37,20.20
2016,05,07,12,38,20.20
2016,05,07,12,39,20.30
2016,05,07,12,40,20.30
2016,05,07,12,41,20.30
2016,05,07,12,42,20.30
2016,05,07,12,43,20.30
2016,05,07,12,44,20.40
2016,05,07,12,45,20.50
2016,05,07,12,46,20.50
2016,05,07,12,47,20.60
2016,05,07,12,48,20.60
2016,05,07,12,49,20.60
2016,05,07,12,50,20.60
2016,05,07,12,51,20.50
2016,05,07,12,52,20.40
2016,05,07,12,53,20.30
2016,05,07,12,54,20.30
2016,05,07,12,55,20.20
2016,05,07,12,56,20.00
2016,05,07,12,57,19.90
2016,05,07,12,58,19.80
2016,05,07,12,59,19.80
2016,05,07,13,00,19.80
2016,05,07,13,01,19.80
2016,05,07,13,02,19.80
2016,05,07,13,03,19.90
2016,05,07,13,04,19.90
2016,05,07,13,05,19.90
2016,05,07,13,06,19.80
2016,05,07,13,07,19.70
2016,05,07,13,08,19.70
2016,05,07,13,09,19.70
2016,05,07,13,10,19.70
2016,05,07,13,11,19.70
2016,05,07,13,12,19.60
2016,05,07,13,13,19.60
2016,05,07,13,14,19.70
2016,05,07,13,15,19.70
2016,05,07,13,16,19.70
2016,05,07,13,17,19.70
2016,05,07,13,18,19.60
2016,05,07,13,19,19.50
2016,05,07,13,20,19.60
2016,05,07,13,21,19.60
2016,05,07,13,22,19.70
2016,05,07,13,23,19.70
2016,05,07,13,24,19.70
2016,05,07,13,25,19.80
2016,05,07,13,26,19.90
2016,05,07,13,27,19.90
2016,05,07,13,28,19.80
2016,05,07,13,29,19.70
2016,05,07,13,30,19.60
2016,05,07,13,31,19.50
2016,05,07,13,32,19.40
2016,05,07,13,33,19.20
2016,05,07,13,34,19.00
2016,05,07,13,35,18.80
2016,05,07,13,36,18.50
2016,05,07,13,37,18.40
2016,05,07,13,38,18.40
2016,05,07,13,39,18.40
2016,05,07,13,40,18.50
2016,05,07,13,41,18.50
2016,05,07,13,42,18.50
2016,05,07,13,43,18.40
2016,05,07,13,44,18.40
2016,05,07,13,45,18.40
2016,05,07,13,46,18.50
2016,05,07,13,47,18.50
2016,05,07,13,48,18.50
2016,05,07,13,49,18.50
2016,05,07,13,50,18.50
2016,05,07,13,51,18.60
2016,05,07,13,52,18.70
2016,05,07,13,53,18.70
2016,05,07,13,54,18.70
2016,05,07,13,55,18.50
2016,05,07,13,56,18.40
2016,05,07,13,57,18.30
2016,05,07,13,58,18.20
2016,05,07,13,59,18.20
2016,05,07,14,00,18.20
2016,05,07,14,01,18.20
2016,05,07,14,02,18.20
2016,05,07,14,03,18.30
2016,05,07,14,04,18.30
2016,05,07,14,05,18.20
2016,05,07,14,06,18.10
2016,05,07,14,07,18.00
2016,05,07,14,08,17.90
2016,05,07,14,09,17.80
2016,05,07,14,10,17.80
2016,05,07,14,11,17.80
2016,05,07,14,12,17.80
2016,05,07,14,13,17.80
2016,05,07,14,14,17.80
2016,05,07,14,15,17.90
2016,05,07,14,16,18.00
2016,05,07,14,17,18.10
2016,05,07,14,18,18.20
2016,05,07,14,19,18.30
2016,05,07,14,20,18.30
2016,05,07,14,21,18.50
2016,05,07,14,22,18.60
2016,05,07,14,23,18.70
2016,05,07,14,24,18.90
2016,05,07,14,25,19.10
2016,05,07,14,26,19.30
2016,05,07,14,27,19.40
2016,05,07,14,28,19.40
2016,05,07,14,29,19.50
2016,05,07,14,30,19.60
2016,05,07,14,31,19.70
2016,05,07,14,32,19.80
2016,05,07,14,33,19.90
2016,05,07,14,34,20.00
2016,05,07,14,35,20.10
2016,05,07,14,36,20.10
2016,05,07,14,37,20.10
2016,05,07,14,38,20.10
2016,05,07,14,39,20.10
2016,05,07,14,40,20.20
2016,05,07,14,41,20.30
2016,05,07,14,42,20.30
2016,05,07,14,43,20.40
2016,05,07,14,44,20.50
2016,05,07,14,45,20.60
2016,05,07,14,46,20.70
2016,05,07,14,47,20.90
2016,05,07,14,48,21.10
2016,05,07,14,49,21.30
2016,05,07,14,50,21.50
2016,05,07,14,51,21.60
2016,05,07,14,52,21.80
2016,05,07,14,53,22.10
2016,05,07,14,54,22.30
2016,05,07,14,55,22.50
2016,05,07,14,56,22.70
2016,05,07,14,57,22.90
2016,05,07,14,58,23.10
2016,05,07,14,59,23.30
2016,05,07,15,00,23.50
2016,05,07,15,01,23.70
2016,05,07,15,02,23.90
2016,05,07,15,03,24.00
2016,05,07,15,04,24.20
2016,05,07,15,05,24.20
2016,05,07,15,06,24.30
2016,05,07,15,07,24.40
2016,05,07,15,08,24.40
2016,05,07,15,09,24.60
2016,05,07,15,10,24.70
2016,05,07,15,11,24.80
2016,05,07,15,12,24.70
2016,05,07,15,13,24.60
2016,05,07,15,14,24.60
2016,05,07,15,15,24.60
2016,05,07,15,16,24.60
2016,05,07,15,17,24.60
2016,05,07,15,18,24.50
2016,05,07,15,19,24.40
2016,05,07,15,20,24.20
2016,05,07,15,21,24.20
2016,05,07,15,22,24.20
2016,05,07,15,23,24.20
2016,05,07,15,24,24.30
2016,05,07,15,25,24.30
2016,05,07,15,26,24.30
2016,05,07,15,27,24.30
2016,05,07,15,28,24.20
2016,05,07,15,29,24.20
2016,05,07,15,30,24.10
2016,05,07,15,31,24.10
2016,05,07,15,32,24.10
2016,05,07,15,33,24.10
2016,05,07,15,34,24.00
2016,05,07,15,35,23.90
2016,05,07,15,36,23.80
2016,05,07,15,37,23.70
2016,05,07,15,38,23.60
2016,05,07,15,39,23.60
2016,05,07,15,40,23.60
2016,05,07,15,41,23.60
2016,05,07,15,42,23.60
2016,05,07,15,43,23.60
2016,05,07,15,44,23.50
2016,05,07,15,45,23.50
2016,05,07,15,46,23.40
2016,05,07,15,47,23.40
2016,05,07,15,48,23.30
2016,05,07,15,49,23.20
2016,05,07,15,50,23.20
2016,05,07,15,51,23.10
2016,05,07,15,52,23.10
2016,05,07,15,53,23.00
2016,05,07,15,54,22.90
2016,05,07,15,55,22.80
2016,05,07,15,56,22.80
2016,05,07,15,57,22.90
2016,05,07,15,58,22.90
2016,05,07,15,59,22.90
2016,05,07,16,00,22.80
2016,05,07,16,01,22.80
2016,05,07,16,02,22.70
2016,05,07,16,03,22.70
2016,05,07,16,04,22.70
2016,05,07,16,05,22.70
2016,05,07,16,06,22.70
2016,05,07,16,07,22.70
2016,05,07,16,08,22.60
2016,05,07,16,09,22.60
2016,05,07,16,10,22.60
2016,05,07,16,11,22.60
2016,05,07,16,12,22.60
2016,05,07,16,13,22.50
2016,05,07,16,14,22.40
2016,05,07,16,15,22.40
2016,05,07,16,16,22.30
2016,05,07,16,17,22.20
2016,05,07,16,18,22.00
2016,05,07,16,19,21.80
2016,05,07,16,20,21.70
2016,05,07,16,21,21.50
2016,05,07,16,22,21.40
2016,05,07,16,23,21.30
2016,05,07,16,24,21.10
2016,05,07,16,25,21.00
2016,05,07,16,26,20.80
2016,05,07,16,27,20.80
2016,05,07,16,28,20.70
2016,05,07,16,29,20.60
2016,05,07,16,30,20.50
2016,05,07,16,31,20.40
2016,05,07,16,32,20.30
2016,05,07,16,33,20.20
2016,05,07,16,34,20.20
2016,05,07,16,35,20.10
2016,05,07,16,36,20.00
2016,05,07,16,37,19.90
2016,05,07,16,38,19.80
2016,05,07,16,39,19.80
2016,05,07,16,40,19.80
2016,05,07,16,41,19.70
2016,05,07,16,42,19.70
2016,05,07,16,43,19.60
2016,05,07,16,44,19.50
2016,05,07,16,45,19.40
2016,05,07,16,46,19.30
2016,05,07,16,47,19.30
2016,05,07,16,48,19.30
2016,05,07,16,49,19.20
2016,05,07,16,50,19.20
2016,05,07,16,51,19.20
2016,05,07,16,52,19.10
2016,05,07,16,53,19.00
2016,05,07,16,54,18.80
2016,05,07,16,55,18.70
2016,05,07,16,56,18.70
2016,05,07,16,57,18.70
2016,05,07,16,58,18.60
2016,05,07,16,59,18.60
2016,05,07,17,00,18.50
2016,05,07,17,01,18.30
2016,05,07,17,02,18.20
2016,05,07,17,03,18.20
2016,05,07,17,04,18.20
2016,05,07,17,05,18.20
2016,05,07,17,06,18.10
2016,05,07,17,07,18.10
2016,05,07,17,08,18.10
2016,05,07,17,09,18.10
2016,05,07,17,10,18.10
2016,05,07,17,11,18.10
2016,05,07,17,12,18.10
2016,05,07,17,13,18.00
2016,05,07,17,14,17.90
2016,05,07,17,15,18.00
2016,05,07,17,16,18.00
2016,05,07,17,17,17.90
2016,05,07,17,18,17.80
2016,05,07,17,19,17.70
2016,05,07,17,20,17.70
2016,05,07,17,21,17.60
2016,05,07,17,22,17.40
2016,05,07,17,23,17.30
2016,05,07,17,24,17.20
2016,05,07,17,25,17.20
2016,05,07,17,26,17.20
2016,05,07,17,27,17.10
2016,05,07,17,28,16.90
2016,05,07,17,29,16.80
2016,05,07,17,30,16.80